Weather in Beloye

Russia / Yaroslavl Oblast     58°22′52″N   39°23′39″E
temp.,
°C
wind,
m/s
gust,
m/s
humid.,
%
clouds,
%
prec.,
mm/h
press.,
hPa
HPBL,
m
7 may, fri
fri700:00+7sw5118643 1.0 10031160
03:00+5ssw4119598 1.1 1005595
06:00+6sw4990100 0.1 1005654
09:00+8sw5766100 0.1 10061346
12:00+8sw4864100 0.0 10081350
15:00+11w5104364 0.1 10082262
18:00+11sw49535 0.1 10091980
21:00+6s37790 0.1 1011119
8 may, sat
sat800:00+4s398329 0.0 1011178
03:00+5sse31181100 0.0 1011240
06:00+7sse41472100 0.0 1011494
09:00+10sse51360100 0.0 10101415
12:00+10sse61470100 0.3 10081759
15:00+9sse71578100 1.8 10061598
18:00+8se71792100 6.3 10031460
21:00+8sse51494100 8.9 10011193
9 may, sun
sun900:00+8sse3998100 2.3 1000610
03:00+7wnw2698100 3.3 1001261
06:00+6wnw3697100 0.3 1004520
09:00+4wnw41097100 1.6 1007799
12:00+5wnw5990100 0.8 1011931
15:00+8nw597533 0.9 10151427
18:00+9n26605 0.1 10181199
21:00+4w22825 0.1 102120
10 may, mon
mon1000:00+3w11845 0.0 102310
03:00+2w11855 0.0 102610
06:00+4sw127697 0.0 102767
09:00+10sw354999 0.0 1028604
12:00+14sw46415 0.0 10281924
15:00+14wsw5745100 0.0 10281910
18:00+11sw386799 0.0 1028537
21:00+9ssw277998 0.0 1029177
11 may, tue
tue1100:00+6sw239050 0.0 102943
03:00+6ssw2691100 0.0 103095
06:00+9ssw2586100 0.0 1030151
09:00+14sw3467100 0.0 1030446
12:00+18wsw3456100 0.0 10301078
15:00+19wsw35521 0.0 10291277
18:00+18wsw25635 0.0 1028763
21:00+12sw228850 0.0 102822